Theta_e
306 306 306 306 306 306 308 310 312 312 313 313 314 315 316 316 315 314 314 311 309 307 303 301 304 308 310 312 314 316 317 318 319 320 320 321 321 320 320 320 319 319 319 318 317 316 316 315 316 317 320 326 328 328 327 328 328 326 332 335 334 339 337 336 334 327 328 327 322 321 322 323 323 323 322 323 321 321 322 322 321 321 324 324 325 327 325 323
306 306 306 306 306 306 307 309 311 311 312 313 313 314 315 316 315 314 314 313 310 308 305 301 302 306 309 311 313 315 316 317 319 319 320 321 321 321 321 320 319 319 319 318 317 316 315 315 315 317 322 327 327 327 326 327 327 328 335 335 335 341 336 330 329 325 324 323 322 321 321 322 322 322 322 323 321 322 325 325 323 322 322 323 324 325 325 324
305 306 306 306 306 307 307 308 309 311 311 312 313 313 314 315 315 314 315 314 312 309 307 302 301 304 308 310 312 314 315 317 318 318 319 320 320 320 320 320 320 319 319 319 318 316 315 314 316 321 325 327 328 327 326 327 327 327 331 334 337 336 330 327 326 324 323 322 321 321 322 322 321 322 321 322 320 321 325 326 326 324 323 323 323 323 324 324
304 305 305 306 306 306 307 307 308 310 311 311 311 312 313 314 315 315 315 314 313 310 308 304 301 303 307 309 311 313 315 317 317 316 315 318 320 320 320 321 321 320 319 318 318 317 315 314 318 324 327 327 327 327 326 326 328 327 328 334 334 329 328 329 326 325 324 322 322 321 322 321 321 322 320 320 321 322 321 322 324 323 321 321 322 321 321 323
304 304 305 305 306 306 306 307 307 309 310 310 311 312 312 313 315 315 315 314 314 311 308 305 301 302 305 308 309 312 315 318 318 317 315 314 317 320 320 321 321 321 320 319 318 317 315 314 320 327 330 329 327 328 327 326 327 328 328 329 328 326 329 329 326 327 327 325 325 323 323 323 322 322 321 321 324 325 321 320 321 321 320 319 319 319 320 321
303 304 304 305 305 306 306 306 307 307 309 310 310 311 312 312 313 315 315 315 314 312 309 306 302 302 304 306 308 311 315 318 320 321 320 317 317 319 321 321 322 323 321 320 319 317 315 314 321 329 331 329 328 329 329 327 326 329 328 325 326 327 327 328 327 328 328 326 326 324 323 322 322 323 323 322 324 325 322 322 322 322 322 320 318 318 318 319
303 303 304 304 305 305 306 306 306 307 308 309 310 310 312 312 312 314 315 315 314 313 311 306 303 302 303 306 306 309 314 316 318 322 322 321 321 320 321 321 321 323 323 322 320 317 315 315 323 330 330 329 329 328 328 327 326 328 330 326 327 328 326 327 328 328 328 328 326 324 323 323 324 325 324 323 323 324 323 324 323 324 323 322 321 319 318 318
303 303 303 304 305 305 305 306 306 306 307 308 309 310 311 312 312 313 315 315 315 314 312 308 305 302 303 305 305 309 313 313 313 321 323 322 322 321 321 321 320 323 324 323 321 317 315 316 324 330 329 328 327 327 328 328 327 327 328 327 326 327 327 327 327 328 328 328 327 325 324 325 326 326 325 325 324 323 324 324 324 325 324 324 323 321 320 320
303 303 303 303 304 305 305 305 306 306 306 306 308 309 310 312 312 313 315 315 315 314 313 310 306 304 304 304 306 310 312 308 307 317 323 323 322 322 321 322 321 322 323 323 321 318 316 316 322 329 329 326 326 327 327 329 330 327 326 326 326 327 327 327 327 328 328 328 327 327 327 326 326 327 327 327 325 324 324 324 325 325 325 324 324 323 322 321
302 303 303 303 303 304 305 306 306 306 306 306 307 308 309 311 311 312 313 315 315 314 313 310 307 305 305 304 307 311 310 306 305 310 319 322 322 322 322 323 323 322 322 324 323 320 317 316 321 327 327 325 323 324 325 328 331 327 326 326 326 327 327 327 327 327 328 327 327 328 330 327 326 327 330 329 327 326 325 326 325 325 326 325 325 324 323 322
303 302 303 303 303 303 304 305 306 305 306 306 307 307 308 310 310 311 313 314 315 315 313 310 307 306 305 304 308 310 307 306 308 306 311 318 320 320 321 322 323 323 322 323 323 321 317 317 323 326 326 324 320 321 322 324 327 326 326 326 326 326 327 327 326 327 327 327 327 328 329 327 326 328 329 328 328 328 326 326 326 326 326 325 325 325 324 323
302 302 302 302 303 303 303 304 305 306 306 306 306 307 307 309 309 310 312 313 314 314 313 311 308 306 305 306 307 307 304 307 312 310 307 311 314 316 318 319 321 323 323 323 323 321 317 318 325 325 324 323 319 320 321 322 323 324 324 327 327 326 328 326 325 326 326 327 327 326 329 329 328 328 328 327 328 328 327 326 326 326 326 326 326 326 326 326
302 302 303 302 302 303 303 304 304 305 306 306 306 306 307 308 309 310 311 312 313 314 313 311 308 306 306 307 306 303 302 305 313 316 312 312 312 314 317 319 319 321 323 324 323 322 318 317 324 326 324 323 322 320 321 321 321 323 323 325 328 328 330 327 324 326 326 327 327 327 331 333 331 328 327 328 328 328 328 327 327 326 326 326 326 326 327 327
302 302 303 302 302 303 303 304 304 305 306 306 306 306 306 307 308 310 311 312 313 314 313 312 308 306 307 308 306 304 303 302 308 314 316 317 316 316 318 319 319 320 322 324 324 323 319 318 324 326 325 325 324 322 324 324 322 324 323 325 328 329 332 331 324 325 327 326 326 328 330 332 332 328 326 328 328 327 328 327 327 327 326 325 326 326 327 327
302 302 302 302 302 302 303 304 304 304 305 305 306 306 306 306 308 309 310 311 312 314 313 312 309 306 307 307 305 305 304 303 303 307 314 318 319 319 319 319 319 321 323 325 325 324 320 319 324 326 325 325 324 325 329 328 326 327 324 326 329 329 333 333 323 323 328 327 324 328 332 333 331 327 326 327 327 327 327 327 328 327 327 326 325 326 326 327
302 302 302 302 302 303 303 303 304 304 304 305 306 306 306 306 307 308 309 310 311 313 313 312 310 307 307 308 306 305 305 304 301 301 310 316 319 320 319 320 321 323 325 325 324 324 321 321 324 325 325 326 326 327 329 327 326 327 324 324 328 328 331 332 325 322 326 328 325 326 334 337 332 326 326 327 327 327 326 326 327 326 327 327 326 327 326 327
302 302 303 302 302 302 302 303 303 304 304 304 305 306 306 306 307 308 309 310 311 313 313 312 310 307 307 308 307 306 304 303 301 300 307 315 318 321 321 322 324 325 325 325 323 323 324 324 325 324 325 326 325 326 328 325 324 326 325 323 326 328 329 330 328 323 323 329 328 327 329 333 333 327 325 327 326 326 325 324 326 326 326 327 327 327 326 327
302 302 303 302 302 302 302 303 303 304 304 304 305 305 306 306 306 307 309 310 311 313 313 311 309 308 308 307 307 307 305 304 302 299 305 316 319 320 322 323 324 324 324 324 323 323 324 324 323 324 326 326 325 325 325 324 320 322 325 325 326 326 326 328 330 325 323 328 329 330 329 328 330 327 324 327 326 325 325 325 326 326 326 327 327 327 327 327
302 302 302 302 302 302 302 302 303 303 304 304 305 305 306 306 306 307 309 310 311 312 311 310 309 309 309 309 308 307 306 304 304 303 304 313 318 318 321 322 323 322 322 323 323 323 324 323 323 325 326 326 325 324 323 323 321 320 324 326 327 327 326 328 329 325 323 325 327 328 328 327 328 327 324 326 326 325 325 325 326 326 326 327 327 327 327 327
302 302 302 302 302 302 302 302 302 303 304 304 305 306 306 306 307 308 308 309 311 311 310 309 308 308 309 310 310 308 307 306 306 305 304 309 314 316 318 320 321 320 320 322 323 322 323 324 325 325 324 324 324 323 323 325 323 321 324 326 327 328 326 325 326 323 320 323 327 325 325 325 325 326 324 325 325 323 323 324 324 325 326 326 326 327 327 328
303 302 302 302 302 302 302 302 302 302 304 304 305 306 306 306 307 308 309 309 311 310 309 308 308 308 308 310 310 308 309 309 306 305 305 308 311 314 318 318 319 320 319 321 322 322 323 324 324 323 322 322 322 323 323 324 322 322 324 325 326 326 325 323 324 322 319 321 326 326 326 325 324 326 323 323 325 323 323 323 323 325 325 326 326 327 328 328
303 303 303 303 303 302 302 302 302 302 303 304 305 306 306 306 307 308 309 309 310 310 308 307 307 308 307 309 309 307 310 312 310 309 308 310 313 314 317 318 319 321 320 320 321 323 324 324 323 321 321 321 321 322 323 323 323 322 322 324 326 325 323 323 323 322 320 320 323 326 327 324 324 326 323 321 323 323 324 324 325 325 324 325 326 327 328 328
303 304 304 303 303 302 303 302 302 302 304 304 305 305 305 305 306 307 308 308 308 310 308 307 307 307 307 309 308 307 312 313 311 313 311 312 316 315 316 318 318 321 322 321 322 324 325 324 322 320 320 320 320 321 323 323 323 323 322 322 324 323 323 325 323 321 322 321 322 326 325 323 324 325 324 321 321 322 324 324 325 325 324 325 326 326 327 327
303 303 304 304 304 303 303 303 303 303 303 304 304 304 304 304 305 306 307 307 307 308 308 307 307 307 306 307 308 308 313 313 310 313 312 313 317 316 316 317 317 319 321 321 322 323 324 323 321 320 320 320 319 320 321 322 323 323 322 321 322 322 322 326 324 320 321 320 322 325 326 325 326 326 324 322 321 321 323 323 324 325 325 325 325 325 326 326
304 303 303 303 304 304 303 304 304 303 303 304 303 303 304 304 304 305 306 307 306 306 308 308 307 307 306 306 309 309 312 314 311 311 311 313 315 315 316 317 316 318 319 320 322 322 322 321 321 321 321 320 319 319 320 322 323 323 322 320 320 321 320 323 323 319 320 322 323 325 326 326 328 328 326 324 324 322 320 320 321 323 325 325 325 324 325 325
305 304 303 303 303 304 304 306 305 303 303 304 303 303 304 305 305 305 306 307 307 307 308 308 307 308 307 306 308 310 312 314 312 311 312 312 313 313 316 316 316 316 317 319 321 322 322 320 321 321 321 321 319 319 319 321 322 323 322 320 319 320 320 322 321 320 323 325 324 324 325 327 328 327 326 325 325 324 322 320 319 321 323 323 323 324 324 324
305 304 304 303 303 304 305 306 305 304 304 303 303 304 304 304 305 305 306 307 309 308 307 308 308 308 308 306 306 310 313 313 313 313 314 314 314 313 315 316 316 316 316 317 320 322 321 321 322 322 321 321 320 319 319 319 320 321 321 321 320 320 321 322 321 322 324 324 324 323 323 326 326 325 326 325 325 325 323 323 320 319 321 322 323 323 322 322
304 304 303 303 303 304 305 305 305 305 304 302 302 303 303 304 305 304 305 307 309 308 306 307 308 308 308 305 306 310 312 313 314 315 314 315 315 314 315 316 316 316 315 317 320 323 322 321 321 321 321 321 320 319 319 318 318 319 321 322 320 319 321 323 323 323 324 323 324 324 322 325 325 325 325 324 325 324 323 323 321 318 319 321 322 322 321 321
302 302 302 302 303 304 304 305 305 305 304 303 302 303 303 304 304 304 305 308 308 307 307 307 308 309 308 307 307 310 310 311 314 316 315 316 315 314 315 315 315 316 316 316 319 322 322 320 320 321 321 321 320 319 319 318 317 319 322 320 318 320 320 322 324 322 322 322 323 323 323 324 324 324 324 322 323 323 321 322 320 317 319 321 320 320 319 318
302 302 302 302 303 304 304 305 304 305 304 303 303 303 304 304 304 305 306 307 307 307 308 308 308 309 309 308 308 309 309 310 314 315 315 316 316 315 315 314 315 316 317 317 317 319 319 318 318 320 320 319 319 319 318 318 318 320 322 321 322 324 323 324 325 322 321 323 323 321 323 323 322 323 323 321 322 322 320 321 320 317 318 320 319 319 318 318
302 302 302 303 303 304 304 304 304 304 305 304 304 304 304 305 304 306 307 306 306 308 309 309 309 310 309 308 308 309 309 311 314 315 315 315 314 314 315 315 315 316 317 317 317 317 318 318 318 318 319 318 319 319 317 317 319 320 322 324 325 325 325 325 325 323 322 323 323 321 323 323 321 321 321 320 322 322 320 320 320 319 318 318 319 318 318 317
302 302 302 302 303 303 304 304 303 304 304 304 304 304 305 305 305 307 306 304 306 309 308 309 309 310 309 308 308 309 310 311 313 315 315 315 314 314 316 315 314 316 317 316 316 317 318 318 319 319 319 318 319 320 319 319 320 320 321 324 324 324 325 324 323 324 323 322 323 324 323 323 321 321 322 321 321 320 317 317 318 317 317 317 318 318 318 318
302 301 301 301 302 303 303 304 304 304 304 304 304 305 305 304 305 306 304 303 307 308 308 309 310 309 309 308 308 308 309 310 313 315 314 314 314 315 315 315 314 315 316 315 315 316 317 317 318 319 320 319 319 321 321 320 320 319 320 323 324 324 326 325 324 325 324 322 324 324 323 323 322 321 322 321 320 318 315 315 317 316 317 318 318 318 318 319
302 301 301 301 301 302 303 304 304 304 304 304 304 305 304 304 306 307 305 304 305 307 308 309 309 309 309 308 308 308 308 309 313 315 314 313 314 315 315 315 314 315 317 316 313 315 316 316 317 319 320 320 320 320 321 320 320 319 319 321 323 325 326 326 325 325 325 323 324 322 322 325 325 324 323 318 317 317 316 317 317 317 318 318 318 319 319 319
301 301 301 301 302 302 303 304 304 304 304 304 304 305 305 305 305 305 305 306 306 307 309 309 309 310 310 309 308 308 307 309 312 314 313 313 314 314 314 315 314 314 317 316 314 314 314 316 317 317 319 320 320 320 320 321 322 321 322 322 322 323 325 325 325 326 326 325 323 322 324 326 324 323 321 316 317 317 316 316 316 317 317 317 317 318 318 319
301 301 301 301 302 302 303 304 304 304 304 304 304 305 305 305 306 305 305 307 308 308 309 309 309 310 311 309 308 308 307 309 313 314 314 313 314 314 313 314 314 313 315 315 315 315 313 316 319 317 317 319 319 320 320 321 323 323 323 323 322 322 324 326 325 324 325 326 324 322 324 324 321 321 321 319 319 319 318 317 314 315 317 316 316 317 318 318
301 301 300 300 301 302 303 303 303 303 304 304 304 305 304 304 307 307 307 307 308 308 308 309 309 310 311 309 308 308 308 310 313 314 314 314 313 313 312 313 314 313 314 314 315 317 314 315 318 317 317 318 317 319 320 318 321 324 323 322 321 323 324 324 324 324 323 325 325 323 324 323 322 325 325 321 321 321 322 319 314 314 315 315 317 318 318 317
300 300 300 300 301 302 303 303 303 303 303 303 304 305 304 304 305 307 307 307 308 308 308 308 309 309 309 309 309 309 308 309 311 312 313 313 313 313 312 313 313 313 313 312 314 317 315 314 317 317 317 318 317 319 320 318 317 317 318 320 321 322 323 322 322 325 325 324 325 324 323 322 322 323 323 323 322 321 321 319 318 318 315 315 317 318 317 317
300 300 300 300 301 302 303 303 302 303 303 303 304 304 304 305 305 306 307 306 307 308 307 308 309 309 309 309 309 309 307 308 310 311 311 311 312 312 312 312 313 313 313 311 314 318 316 314 316 317 317 319 319 319 320 320 317 314 315 318 319 321 323 323 322 325 327 324 324 325 324 324 323 322 323 325 324 323 322 322 322 319 315 315 316 316 316 318
300 300 300 301 301 301 302 303 303 303 304 303 303 303 303 304 304 304 306 307 306 306 307 308 309 308 308 308 308 309 307 307 310 310 309 310 311 310 311 312 312 313 313 312 313 317 316 313 315 317 317 318 320 319 318 319 319 317 317 319 320 320 323 324 323 325 326 324 324 325 324 327 327 323 321 321 321 323 323 322 322 317 313 315 315 315 317 318
300 300 300 300 301 301 302 303 303 303 304 304 303 304 303 303 304 304 305 306 306 306 307 308 308 308 308 308 308 309 307 307 309 309 308 309 310 310 311 311 312 313 313 313 314 316 317 315 314 318 318 319 321 318 314 317 319 319 319 320 320 320 321 324 325 325 324 323 326 325 323 328 327 320 319 319 320 321 318 318 319 315 314 316 316 316 317 318
300 300 301 301 301 302 302 302 302 302 303 303 303 304 304 304 305 305 304 304 304 306 306 307 308 308 307 308 308 308 308 307 309 309 308 308 309 309 310 311 311 312 313 314 314 313 315 316 315 317 318 318 317 312 308 313 318 319 319 320 320 318 319 323 324 324 323 324 325 325 326 328 323 317 319 320 320 319 314 313 314 314 315 316 316 316 316 317
299 300 301 301 302 302 302 302 302 302 303 302 302 303 304 304 304 304 303 302 304 305 306 307 308 308 307 308 307 308 308 307 308 309 308 308 308 308 309 310 312 313 313 314 314 312 314 315 315 317 317 315 313 311 309 311 315 319 320 320 319 317 318 321 322 319 320 323 324 324 325 325 320 317 316 314 313 314 312 312 313 313 315 315 314 315 314 314
299 300 301 302 302 302 302 302 302 303 302 301 302 304 304 304 304 303 303 302 304 307 307 307 308 308 308 308 308 308 308 308 308 308 309 309 308 308 308 310 312 313 313 314 314 313 314 315 315 317 317 315 315 316 314 312 314 318 321 320 319 318 318 321 321 318 319 321 322 323 325 325 321 319 315 311 314 315 312 312 314 313 314 314 313 313 313 313
299 299 300 301 302 302 302 302 302 303 302 301 303 304 304 304 303 304 304 303 304 306 307 307 308 308 308 308 308 308 308 309 309 308 309 310 309 308 308 310 312 313 313 313 313 312 314 316 315 315 316 316 317 317 316 315 315 317 319 319 319 319 318 320 320 319 320 321 320 321 324 324 319 316 315 314 317 318 314 312 314 314 314 314 313 313 313 313
300 300 300 300 301 301 300 300 301 303 303 302 303 303 304 305 304 303 304 304 304 305 306 306 306 307 308 308 308 308 308 309 309 309 308 309 311 310 308 309 312 312 312 313 312 313 315 317 315 314 316 315 316 317 316 317 317 316 318 319 318 318 318 319 320 320 321 322 321 320 321 322 319 317 317 314 315 319 317 313 314 315 315 315 315 314 313 313
299 301 300 299 300 300 299 299 301 303 303 303 303 303 304 304 304 303 304 305 305 305 306 305 305 307 309 307 308 308 308 308 309 309 308 309 312 311 308 308 310 311 312 312 312 313 315 315 314 314 315 314 316 319 317 316 318 318 318 319 319 318 318 319 319 320 321 321 321 320 321 322 320 319 320 317 315 317 316 313 312 314 314 314 315 315 314 314
299 299 299 300 301 301 301 300 302 303 303 303 304 304 304 304 304 304 305 306 305 305 306 306 305 307 309 308 308 308 308 308 308 309 310 311 313 312 309 308 308 309 312 312 312 313 314 314 313 314 314 313 316 317 315 316 317 316 317 318 318 318 318 318 318 319 320 321 320 321 323 321 319 320 321 318 315 314 313 313 313 313 313 313 313 314 314 314
299 300 299 300 301 301 301 301 301 303 304 303 304 304 304 304 304 305 305 306 305 305 305 306 307 308 309 310 309 308 308 308 309 309 309 311 313 312 312 311 307 306 309 311 310 309 311 313 313 313 313 313 314 315 314 316 317 316 315 316 316 316 316 316 318 317 317 318 318 319 322 320 318 321 322 316 313 313 312 313 314 313 313 313 313 313 314 314
300 301 301 301 301 300 301 301 302 303 303 303 304 304 303 304 304 305 306 306 306 306 305 306 308 307 308 309 309 309 308 308 309 309 309 311 313 312 312 313 309 306 308 310 308 305 308 313 311 311 313 312 312 313 313 315 317 316 314 312 312 314 313 313 315 315 314 315 315 315 318 318 316 317 318 315 312 314 314 313 314 315 315 314 313 313 314 314
301 301 301 301 302 301 301 302 302 303 303 303 304 304 304 304 304 305 306 306 306 306 305 306 308 307 307 308 309 309 308 309 310 309 309 311 312 311 311 311 309 309 310 311 309 307 309 312 310 310 313 313 311 312 312 312 312 313 313 312 312 313 313 313 313 313 314 315 314 314 316 317 315 314 315 314 313 313 313 312 314 315 316 316 314 314 314 314
301 301 301 302 302 302 302 302 303 303 303 303 303 304 304 304 304 305 306 305 305 306 305 306 307 307 307 307 309 308 306 306 308 308 309 310 310 309 310 308 307 310 311 310 310 311 311 313 312 312 314 312 310 310 311 309 310 311 312 313 314 315 315 314 312 312 313 314 315 315 315 314 314 315 316 315 314 312 312 313 314 315 316 316 315 315 315 314
Wind_Speed
25 25 26 27 28 29 28 26 25 23 23 23 24 24 22 21 20 20 18 17 16 17 20 23 22 19 16 16 17 19 21 23 24 25 29 31 25 20 20 18 17 17 17 17 17 16 14 13 11 8 8 8 6 7 5 5 6 3 1 2 3 2 3 3 2 3 3 3 4 8 9 8 5 7 12 10 11 15 11 8 10 10 9 7 7 10 12 13
26 25 26 26 27 28 28 28 26 25 24 23 23 24 24 22 21 20 19 17 16 17 18 21 23 21 17 16 16 17 20 23 25 30 34 31 25 22 20 18 18 18 17 15 14 15 13 13 12 10 9 8 7 6 5 5 7 6 2 1 4 4 4 1 3 5 2 3 3 6 8 9 9 10 13 7 7 13 10 7 9 10 10 10 11 12 12 13
27 26 26 26 26 27 27 28 28 26 25 24 23 24 25 24 22 21 21 18 17 17 17 19 22 22 18 16 15 16 19 21 27 36 36 29 27 25 22 19 17 18 18 16 14 14 13 13 13 10 9 8 8 8 6 5 7 7 4 2 5 5 3 6 5 4 1 4 4 2 5 7 9 12 11 7 6 8 7 8 9 11 14 14 15 14 13 14
27 27 27 27 27 27 27 28 28 27 26 25 24 23 25 26 24 22 21 20 18 17 16 17 20 22 20 16 14 15 15 17 25 34 33 29 29 26 23 20 18 17 18 17 16 15 14 14 14 10 7 7 9 9 7 7 6 5 5 4 5 2 2 5 3 2 2 6 6 3 2 4 8 10 9 11 8 2 8 14 11 12 17 18 18 16 15 15
28 28 28 27 27 27 27 27 29 29 27 26 25 24 24 25 26 24 23 21 19 17 17 16 18 21 20 17 13 13 10 8 11 17 22 28 30 26 24 22 18 17 18 19 17 16 15 16 13 9 7 6 7 6 7 14 10 4 6 8 9 5 1 6 5 1 2 5 6 4 4 4 6 7 9 12 7 4 10 15 12 11 14 16 18 18 18 17
28 28 27 28 27 27 28 28 28 29 28 27 26 25 24 25 27 26 25 23 20 18 17 15 16 19 21 18 14 13 12 6 1 6 10 18 23 23 24 23 20 19 20 20 18 16 16 17 13 9 7 6 8 7 7 17 15 5 6 8 13 13 6 6 6 3 2 3 4 4 5 5 4 4 7 9 6 3 4 8 10 10 12 14 17 19 19 18
28 28 28 28 27 27 27 28 28 29 29 28 26 26 25 25 26 27 27 24 21 19 17 16 15 18 20 18 17 16 21 21 9 9 8 8 14 17 20 25 24 22 22 21 20 19 17 17 16 12 8 5 8 9 10 16 15 9 5 6 13 16 14 13 11 8 6 4 3 5 6 4 3 2 3 6 6 5 4 4 4 7 11 15 18 19 18 17
28 28 28 28 28 27 27 28 28 29 30 29 28 27 25 24 25 27 27 25 23 20 18 17 14 17 18 18 19 18 27 36 22 9 7 9 10 10 13 22 27 26 24 23 23 22 20 20 20 16 8 6 8 10 14 12 9 9 6 7 11 14 15 15 13 12 10 6 5 6 5 3 2 1 2 5 7 6 5 4 3 3 9 16 18 18 17 17
27 27 27 28 28 28 28 28 28 28 30 30 29 28 26 25 25 26 28 26 24 21 19 17 15 16 17 19 18 16 29 39 30 17 9 7 5 3 3 13 26 29 26 25 25 23 22 22 24 18 7 7 9 9 16 12 5 9 12 12 10 12 15 12 11 15 12 9 8 6 4 6 4 2 4 8 7 7 6 5 6 6 8 13 16 18 17 17
26 27 27 27 28 28 28 28 28 29 29 31 31 30 28 26 25 25 28 27 25 23 20 18 17 16 17 21 17 14 25 30 28 28 21 12 9 6 3 5 18 29 29 26 26 26 26 23 23 20 9 7 7 7 13 11 5 10 16 17 14 15 18 14 12 16 14 11 11 8 5 9 7 3 4 7 7 9 9 8 9 10 10 12 14 17 17 16
25 27 27 27 27 28 29 28 28 29 29 30 30 30 29 27 25 25 27 27 27 24 21 19 17 17 20 24 21 18 20 19 21 29 30 25 21 17 12 7 10 22 29 28 27 29 28 22 17 15 8 5 4 5 9 9 7 9 12 11 13 15 17 15 12 15 12 7 12 11 5 7 5 4 9 9 7 8 12 12 13 13 12 13 14 16 17 17
24 25 26 27 27 28 30 29 29 28 28 29 30 30 29 28 26 26 26 27 28 25 22 20 18 20 21 23 31 33 26 16 12 19 29 32 30 27 21 16 13 15 24 29 29 28 27 23 16 12 7 5 3 1 6 9 9 11 8 3 6 8 10 15 13 14 12 5 11 10 2 5 4 6 12 12 10 9 10 11 14 16 16 16 16 17 18 16
24 24 25 26 27 27 28 29 29 28 27 27 29 29 29 29 28 27 26 25 28 28 24 21 20 21 20 22 33 37 32 24 14 12 21 27 29 28 21 19 16 13 17 26 29 27 26 24 17 12 9 5 3 2 3 5 7 9 6 2 3 4 5 13 14 13 12 7 12 10 3 6 6 12 15 13 15 15 14 14 15 17 19 20 19 19 19 18
24 24 24 25 26 27 28 28 29 28 27 27 27 28 28 29 28 27 26 26 28 28 25 22 21 22 22 26 30 29 30 28 23 19 18 19 22 23 19 16 16 13 14 21 27 25 24 23 16 10 9 9 7 3 4 2 4 4 3 2 4 4 5 9 11 12 9 7 15 14 5 7 5 13 17 16 18 18 19 21 21 20 21 23 23 22 21 19
23 23 23 23 25 26 27 27 28 28 28 27 27 27 28 29 29 28 27 25 26 27 25 22 22 21 18 25 29 25 23 25 32 29 21 17 17 18 18 15 14 13 12 19 24 21 20 20 16 9 7 10 9 4 4 3 1 2 5 5 4 6 5 6 8 15 11 6 14 14 5 7 5 10 15 15 18 20 23 26 26 26 24 24 24 24 24 21
23 23 23 23 24 25 26 26 27 27 28 28 27 27 27 28 28 28 28 25 25 26 26 24 26 24 12 15 22 22 22 26 35 34 24 21 19 16 16 15 14 14 12 17 21 16 16 17 14 10 7 6 5 2 3 1 3 3 8 8 5 7 4 3 4 13 15 6 8 10 4 3 4 11 17 16 21 24 24 26 28 28 27 26 26 25 25 23
24 24 24 23 23 24 25 26 26 26 27 28 28 27 26 27 27 28 29 25 23 26 29 26 28 24 12 12 15 19 27 32 32 33 29 23 20 17 17 18 19 18 16 18 20 16 16 17 11 7 6 4 3 4 3 5 8 5 6 6 4 6 6 4 3 6 12 7 5 8 6 6 5 9 16 18 23 23 21 23 26 27 27 27 28 28 27 26
26 26 25 24 24 24 24 25 26 25 26 27 27 27 26 26 26 27 28 25 23 26 27 24 22 16 13 20 22 20 25 30 29 31 32 24 19 19 18 20 20 20 18 16 18 18 16 14 9 4 3 4 3 6 8 10 10 8 7 6 2 2 5 6 3 5 8 5 6 7 7 10 9 8 12 16 18 20 22 23 25 26 26 26 28 30 30 30
28 27 27 26 25 25 24 24 25 26 26 26 26 26 26 26 24 25 27 25 23 19 13 21 29 12 4 13 25 27 21 23 26 26 30 28 21 20 19 19 20 21 17 10 12 18 14 9 7 6 5 8 9 11 12 6 8 10 7 5 5 4 4 5 5 6 9 6 7 9 9 10 11 10 12 17 18 18 22 22 21 23 25 27 28 29 30 32
29 29 28 27 27 27 25 24 25 26 26 26 25 24 22 20 16 16 24 29 31 26 12 24 44 22 3 6 10 24 19 16 23 24 29 31 27 23 18 16 15 15 12 6 8 16 15 8 7 11 13 15 15 13 10 3 5 8 5 4 6 6 5 5 5 6 8 7 7 9 11 12 13 11 13 22 21 15 17 16 17 20 23 27 28 28 28 29
31 31 30 29 29 28 28 26 25 25 26 26 27 25 21 20 13 6 16 26 35 37 19 19 43 30 4 9 5 21 22 15 23 27 28 30 29 22 14 12 7 6 10 8 7 10 12 9 11 17 18 17 15 11 8 6 3 6 7 7 7 7 6 5 6 7 6 6 6 6 9 12 12 10 13 21 17 14 19 18 18 22 23 25 28 29 28 27
32 32 32 31 30 30 30 28 27 25 25 26 29 30 27 26 21 9 8 12 24 38 25 14 33 34 14 6 3 20 21 13 20 26 27 28 28 20 12 11 6 3 9 7 5 5 5 9 16 19 15 13 13 11 10 8 5 2 4 5 5 5 3 3 4 5 4 4 4 5 7 10 11 11 13 17 17 19 27 27 25 26 26 27 29 29 30 29
34 33 33 33 33 32 31 30 28 26 26 29 31 33 32 28 27 20 12 5 10 28 31 21 26 37 29 6 2 20 19 13 18 25 30 29 26 25 16 10 8 7 9 9 6 6 5 11 16 14 10 10 10 10 10 7 5 4 2 4 5 4 3 3 5 4 5 5 4 4 7 8 8 10 10 15 20 22 28 31 31 31 28 29 31 31 32 33
36 35 34 35 35 34 33 31 28 29 30 32 34 35 33 28 27 27 17 6 5 13 31 34 24 29 38 20 8 21 19 15 20 26 33 31 25 22 15 11 10 7 7 13 13 10 8 6 9 10 10 12 10 9 10 7 6 7 5 5 4 4 6 5 3 3 4 6 3 2 6 7 7 10 9 10 16 18 23 26 28 31 31 31 31 32 33 34
37 37 37 35 35 36 34 29 30 35 32 32 37 35 31 28 26 25 14 4 5 6 20 30 21 20 33 26 14 19 17 14 21 29 35 37 30 19 11 12 11 7 9 13 14 12 11 6 13 13 11 12 11 10 12 10 7 8 8 9 7 6 6 5 2 2 2 6 5 5 6 7 5 10 11 7 8 12 17 18 22 28 31 30 32 33 34 35
35 37 37 36 37 35 31 31 36 36 31 34 39 33 30 27 24 22 11 2 4 5 10 19 19 18 27 28 22 18 11 11 19 28 34 38 36 23 11 8 6 9 11 8 7 6 7 9 13 12 11 12 12 10 13 13 8 8 10 10 8 7 7 7 5 2 4 6 4 5 8 7 3 7 10 8 8 11 12 12 17 25 27 29 32 34 36 38
33 34 35 35 34 33 33 35 35 32 34 39 38 33 30 27 23 18 10 4 6 7 9 15 18 18 22 27 29 18 5 11 17 23 33 35 33 25 12 7 6 9 7 3 5 3 5 12 12 12 13 12 11 10 13 15 11 10 8 8 8 9 9 7 6 5 4 3 5 2 4 6 6 6 7 8 9 11 10 10 12 18 25 30 35 38 39 41
30 31 31 31 31 34 38 36 32 34 41 40 35 34 30 26 25 16 7 5 5 9 7 13 18 18 21 27 34 20 3 14 15 16 33 35 28 22 10 9 11 8 7 6 7 2 5 13 14 15 13 9 12 12 12 16 12 8 7 8 9 10 8 5 4 5 2 2 5 4 2 4 8 5 5 7 8 10 11 11 11 17 27 33 36 38 38 39
25 26 28 28 27 32 37 37 36 38 41 37 31 31 28 27 23 10 4 5 2 5 4 15 19 16 19 22 29 23 8 11 10 14 32 32 27 19 7 12 13 4 4 7 7 2 1 5 10 13 12 9 13 11 10 15 12 5 9 8 7 6 6 5 3 2 1 2 8 8 4 5 7 4 5 6 8 11 9 8 11 18 29 32 33 35 36 38
22 24 23 23 24 29 34 38 40 37 36 35 29 27 28 25 14 4 8 5 3 1 5 15 18 18 22 17 16 19 10 5 9 16 23 23 25 19 8 12 11 5 2 6 6 4 2 3 1 7 10 8 8 9 12 16 11 8 8 6 4 2 3 3 1 2 1 6 11 10 7 6 7 4 7 6 7 9 8 7 9 15 25 32 35 38 41 42
21 22 21 21 25 29 33 40 43 38 36 36 30 29 28 16 6 6 8 3 3 3 6 10 14 17 22 17 12 15 8 3 9 14 11 10 15 12 6 8 6 5 4 4 5 5 2 1 1 4 8 6 5 6 9 10 8 7 6 5 4 0 1 3 2 2 4 10 10 10 8 7 10 6 5 6 6 8 9 9 10 14 24 35 39 41 43 43
19 19 20 22 25 28 34 40 43 40 37 36 34 33 22 7 5 7 3 4 2 4 6 8 11 13 18 18 14 15 11 5 8 11 9 7 7 9 9 8 7 7 6 7 7 6 5 5 3 2 5 7 9 6 4 4 6 8 6 6 7 3 2 4 4 4 8 9 5 7 9 8 12 8 5 7 6 7 10 12 15 18 25 34 38 39 40 41
17 18 18 20 23 27 34 36 38 41 37 37 38 30 13 6 8 8 4 2 3 5 8 10 12 15 19 17 13 14 11 5 7 10 11 9 7 9 10 8 9 7 5 8 9 6 5 6 6 3 3 7 10 8 6 6 8 11 9 8 9 6 5 7 7 5 7 7 4 5 7 7 10 7 9 11 10 12 15 19 23 24 27 31 33 34 35 36
18 19 18 17 21 25 30 32 37 43 39 39 34 18 8 8 6 9 11 6 3 3 8 11 13 13 15 13 11 14 10 4 8 10 9 9 7 8 9 8 9 5 3 5 7 6 7 7 7 8 5 8 10 9 8 8 9 11 9 8 8 6 5 7 7 6 5 2 3 4 4 5 6 5 9 13 17 22 23 24 25 25 26 29 30 30 29 29
19 18 16 15 19 24 27 32 37 43 44 39 21 6 8 8 4 7 10 5 2 2 5 11 14 13 10 7 6 11 8 4 9 9 7 10 8 8 9 8 10 8 4 5 5 6 9 7 5 11 10 10 10 7 4 6 6 6 4 6 9 7 4 2 2 5 4 3 3 4 3 4 5 5 5 5 9 17 21 23 24 25 28 30 30 30 31 28
18 15 15 16 20 23 26 33 39 45 49 34 11 5 9 7 3 4 5 5 5 4 8 11 11 10 9 5 5 10 5 1 9 8 5 9 8 9 10 8 11 11 7 7 4 4 8 6 2 9 10 10 14 11 7 9 7 3 4 7 5 2 3 2 1 2 4 3 4 5 5 4 2 7 7 3 4 7 11 16 19 23 28 29 28 32 37 34
18 15 16 17 19 21 26 34 40 47 46 25 8 8 8 7 5 4 2 3 9 10 9 8 7 7 9 5 6 13 6 2 8 7 4 6 6 9 10 8 13 15 12 9 4 2 7 5 1 6 10 11 14 13 8 6 3 3 7 7 3 2 3 3 1 1 3 4 4 7 11 7 4 6 5 5 8 9 8 9 10 15 19 22 28 34 35 29
17 16 16 17 18 21 29 37 42 45 34 14 10 11 7 7 7 5 3 3 9 14 9 5 5 6 9 8 8 15 11 6 9 8 6 6 4 10 14 9 11 19 19 13 5 2 5 4 4 5 9 6 6 8 5 7 5 2 2 1 3 2 2 3 3 3 4 5 4 6 10 7 7 7 3 5 11 10 9 8 7 9 13 19 27 26 19 15
16 13 11 14 16 19 29 39 44 40 20 6 11 9 3 4 4 5 10 6 3 9 9 6 4 6 10 10 9 14 14 11 11 9 8 7 4 10 18 12 9 18 22 15 6 1 3 4 4 2 4 5 5 5 8 9 7 2 2 2 1 2 4 5 5 2 3 6 5 4 5 5 6 7 6 7 9 8 9 9 7 10 16 19 20 15 8 8
17 8 5 10 12 16 31 40 36 26 11 5 9 5 2 3 3 5 14 14 5 5 7 7 6 7 9 8 6 10 11 10 11 9 7 8 5 6 14 15 9 14 19 15 7 1 2 4 4 2 1 5 6 7 11 12 8 5 2 3 3 2 1 1 3 2 3 5 6 6 6 5 4 5 8 11 11 9 10 8 7 11 14 13 13 10 7 7
16 5 4 9 9 19 36 32 17 10 5 4 5 2 3 3 2 5 10 12 8 5 3 6 8 9 9 7 7 9 8 6 9 8 5 8 9 5 10 16 11 11 14 11 8 4 2 3 5 1 2 6 5 4 6 7 8 9 7 7 7 5 3 2 4 3 2 3 4 5 5 5 4 2 5 10 10 8 8 6 7 10 8 4 4 5 6 8
15 2 4 9 13 28 35 16 3 5 4 4 4 3 5 4 2 5 6 4 4 4 3 2 4 7 9 8 7 8 8 6 9 9 7 11 13 6 8 15 14 14 13 9 8 6 2 2 4 2 3 4 3 3 1 1 3 7 7 6 6 4 4 5 6 4 3 4 3 2 3 5 4 4 4 4 4 4 7 8 7 5 3 6 7 8 9 10
13 3 5 11 19 33 28 5 2 6 1 3 6 5 5 4 2 3 3 2 2 2 2 2 3 6 7 6 7 10 9 6 8 11 9 9 9 5 8 16 19 15 10 7 7 4 2 2 3 1 2 2 4 4 2 4 2 3 5 5 6 6 6 5 3 3 3 4 4 2 4 3 4 4 5 3 1 2 1 6 9 9 10 12 12 12 12 11
12 5 7 14 23 31 19 2 5 8 2 3 5 3 4 3 3 5 4 4 3 1 1 3 5 6 5 5 9 11 11 7 8 10 7 3 6 8 12 20 20 13 9 9 10 10 6 3 4 3 1 1 3 3 2 3 0 3 5 6 8 10 9 2 0 1 1 4 7 4 4 4 4 5 5 5 3 6 5 7 13 14 14 15 15 13 12 11
10 2 4 14 28 31 13 1 6 8 4 5 4 5 5 2 3 6 5 3 3 2 2 3 3 4 5 5 7 9 11 8 4 7 5 2 4 7 13 23 22 15 13 14 16 15 7 3 5 7 6 7 7 5 2 2 2 1 2 7 11 13 13 7 4 5 4 5 7 5 4 4 3 3 3 3 3 5 4 6 10 13 14 15 15 13 11 11
7 1 2 7 19 20 5 1 7 7 5 7 4 4 6 2 1 4 5 3 4 4 2 3 4 3 6 8 7 7 12 7 3 4 7 5 3 3 11 23 22 17 15 17 21 15 3 2 7 8 9 8 5 4 2 4 4 2 4 9 12 12 12 9 6 6 5 4 6 7 6 5 5 3 2 3 1 4 4 5 8 10 11 13 13 13 11 10
4 2 1 2 4 5 2 3 4 4 4 7 4 3 7 5 1 3 5 4 5 5 3 2 1 2 7 13 10 8 12 10 4 5 7 7 3 2 6 15 16 15 14 17 22 14 2 5 9 10 14 10 4 4 4 5 7 8 8 10 11 10 10 9 9 8 6 5 7 7 7 8 10 7 6 5 4 4 5 6 9 10 10 10 10 11 10 9
1 1 3 3 2 3 2 3 6 7 6 8 5 3 7 7 4 4 4 3 3 4 3 1 1 4 5 10 9 7 10 10 7 5 4 5 4 1 3 4 5 9 10 12 15 10 3 8 10 11 15 11 4 5 3 4 6 8 10 11 11 12 13 13 13 11 8 8 9 6 8 12 12 7 7 8 7 7 9 10 10 10 10 9 8 8 10 10
3 2 3 4 1 2 3 5 8 8 8 8 4 3 8 9 8 6 3 3 2 3 4 3 3 6 5 3 5 7 10 10 10 8 5 5 6 4 4 2 0 3 6 6 6 3 3 7 6 9 13 10 6 4 3 4 4 3 7 9 9 12 13 13 14 12 10 9 7 4 6 10 8 5 7 11 13 13 13 12 10 9 9 8 7 8 11 12
2 2 4 4 1 1 6 7 7 6 6 7 4 3 6 10 10 7 4 5 5 2 5 6 5 5 4 3 4 6 11 14 12 9 8 7 5 4 4 4 3 3 4 4 1 1 2 4 3 7 7 6 5 5 3 4 4 3 5 4 5 8 8 8 10 8 5 6 7 4 4 8 7 6 7 9 12 12 11 12 13 12 12 12 12 12 12 13
1 3 8 6 1 1 5 5 4 4 4 6 5 4 6 10 11 9 5 8 9 6 7 8 4 1 1 3 4 5 7 9 9 11 16 14 12 10 7 6 8 7 5 4 3 1 2 1 2 5 5 4 5 7 5 3 2 4 5 3 6 7 5 6 8 7 7 7 6 4 4 9 7 6 6 10 12 10 9 12 15 16 18 18 18 17 17 17
1 5 8 6 1 1 4 3 3 4 4 5 6 5 6 8 10 9 5 6 9 10 11 11 7 3 1 4 8 6 4 5 5 15 23 20 15 13 9 10 14 11 7 6 3 2 5 4 2 4 5 4 3 6 6 4 2 4 7 8 11 10 8 7 6 6 9 9 7 6 9 11 5 6 8 13 11 10 13 18 21 22 24 23 22 22 22 22
Wind_Direction
261 261 262 259 256 255 256 256 255 256 256 255 253 251 251 251 254 259 264 267 272 274 263 247 239 239 244 250 255 256 259 260 259 255 248 246 247 246 247 245 244 243 242 242 243 246 240 236 237 232 231 223 232 253 249 240 229 223 125 154 229 196 192 189 204 240 217 231 204 186 172 143 139 144 136 134 138 135 141 151 150 164 159 150 149 146 157 163
263 260 260 259 258 255 255 255 254 255 255 255 254 251 250 249 250 254 259 263 267 272 271 256 240 236 241 246 253 258 260 261 263 258 249 247 247 242 241 242 242 241 238 234 233 237 234 226 222 217 218 215 219 233 240 230 206 193 136 172 228 195 205 270 276 267 255 228 192 178 187 167 159 153 143 137 139 136 130 137 150 165 165 162 159 156 167 170
264 262 260 258 258 256 254 254 253 254 253 254 254 251 249 249 248 250 254 257 261 267 272 264 244 235 236 242 253 258 262 269 269 259 247 243 246 242 239 239 238 238 235 230 224 226 225 215 211 207 209 212 213 222 232 221 205 202 176 209 242 211 248 320 317 290 260 171 141 135 201 181 162 157 157 157 154 153 154 161 164 173 174 170 168 170 176 178
264 262 260 258 257 256 254 252 252 253 252 252 253 252 249 248 246 245 248 251 256 260 265 266 250 236 234 238 248 256 267 280 274 263 251 243 244 242 238 235 232 234 232 228 220 219 218 209 210 206 205 218 214 220 229 211 204 201 182 199 237 212 240 283 307 3 66 134 135 123 151 159 160 165 168 151 141 238 211 191 191 190 185 180 176 178 181 184
263 261 260 259 258 256 255 252 251 252 251 250 251 251 249 247 246 244 244 245 249 254 258 262 252 238 233 234 241 251 260 287 281 263 251 241 239 240 237 231 227 225 222 222 217 214 214 209 211 210 207 220 207 211 231 218 206 192 216 221 232 228 182 251 261 3 59 115 131 131 125 147 169 175 172 157 156 248 225 213 218 209 197 189 184 184 186 190
262 260 259 258 258 257 256 253 251 250 251 250 248 250 250 247 245 243 241 241 243 248 253 256 251 241 234 231 237 239 227 229 173 172 215 228 225 229 231 226 220 218 214 214 213 210 212 209 210 208 198 208 203 194 215 219 212 214 246 230 232 236 223 238 255 277 262 138 125 131 147 158 163 185 187 183 184 179 196 215 223 224 222 206 192 188 189 194
261 259 257 257 256 255 255 253 251 249 249 249 248 247 248 247 244 242 239 237 238 242 248 250 248 243 236 230 233 235 229 230 210 144 155 183 193 206 220 219 214 215 213 210 209 206 208 206 206 201 190 201 206 202 210 216 212 215 244 227 229 237 234 239 250 257 237 193 158 142 151 161 157 184 215 215 194 155 127 146 191 222 225 213 200 195 195 196
260 259 257 256 254 253 253 252 251 249 248 247 246 246 248 247 243 242 238 233 233 236 242 244 242 242 235 227 231 240 239 231 216 171 139 134 150 172 204 213 211 213 213 209 206 203 206 206 203 198 195 215 198 198 208 213 216 212 227 230 225 234 239 246 242 232 224 198 177 165 178 207 188 200 273 240 197 179 176 172 189 209 209 209 208 205 202 202
262 259 257 255 254 253 250 250 250 250 249 246 245 245 247 246 242 242 239 232 230 230 236 237 234 237 231 224 229 244 244 233 218 206 187 150 144 150 198 211 209 211 211 209 205 204 208 209 205 197 200 226 206 202 201 200 223 210 216 228 226 234 243 249 225 214 216 202 186 186 221 233 226 252 270 251 220 196 195 200 218 216 201 202 208 211 208 210
263 261 258 255 254 253 251 248 248 249 249 247 245 243 245 247 243 242 242 235 229 226 229 231 228 228 224 219 221 239 245 238 226 221 219 221 239 260 278 221 210 211 211 209 206 207 209 209 207 203 215 238 221 224 205 193 207 206 214 225 228 234 241 243 215 205 209 207 202 199 220 234 224 202 242 246 220 210 213 214 220 218 209 203 206 210 213 219
263 262 260 255 252 252 251 248 247 247 247 246 244 243 243 245 243 243 241 235 230 225 221 225 225 223 222 216 216 230 237 237 234 228 226 231 242 251 253 252 227 214 211 210 208 209 208 205 203 202 217 241 225 249 230 212 215 218 216 224 237 238 244 244 215 200 203 209 212 204 217 236 213 193 229 230 203 210 222 223 221 219 219 216 212 214 219 225
263 261 259 256 253 251 249 249 248 246 246 245 244 243 241 243 243 243 241 234 232 228 219 218 220 222 222 221 225 231 230 224 226 227 227 232 240 247 251 252 250 226 214 211 208 209 209 204 198 199 211 223 201 233 248 227 219 233 226 216 262 257 251 243 226 204 199 210 207 194 266 248 209 218 227 228 217 214 224 226 222 220 223 225 224 224 227 233
265 263 261 257 254 251 248 248 248 246 245 244 244 243 241 240 240 243 242 236 233 228 218 212 217 219 218 228 236 238 235 225 210 210 222 232 238 242 249 251 251 248 229 215 208 208 210 206 206 220 232 230 203 180 251 235 207 226 224 183 261 280 260 235 227 203 193 213 189 170 259 238 224 236 225 228 229 229 238 238 231 226 226 227 229 230 233 238
266 263 261 257 255 252 248 246 246 245 244 244 243 242 241 239 238 240 241 236 233 227 213 208 213 213 219 235 241 242 240 232 219 211 211 221 232 234 239 244 244 252 246 221 209 209 212 210 213 236 243 235 242 267 325 324 192 189 186 192 205 223 263 236 209 180 180 224 184 164 243 240 231 241 227 228 233 236 244 245 242 237 232 228 228 231 236 239
266 263 262 258 255 252 248 245 244 244 243 242 242 242 241 239 238 237 240 236 233 227 211 205 207 205 223 243 244 243 239 233 225 216 207 212 221 225 227 231 235 239 238 218 208 209 212 211 214 228 237 233 240 276 351 341 292 147 187 222 207 206 269 268 208 181 183 221 182 168 236 253 247 236 225 230 235 237 239 244 247 244 240 234 230 232 236 238
266 264 262 259 255 252 248 244 245 244 242 242 241 242 240 240 237 236 242 236 231 227 210 202 205 201 220 251 247 242 230 227 229 218 206 211 214 214 215 215 218 216 210 203 198 199 202 204 212 219 220 217 205 145 59 334 266 222 206 215 207 203 229 277 240 195 186 172 186 198 224 251 257 229 223 229 233 234 234 239 245 246 246 243 238 235 235 237
264 262 260 258 255 253 249 244 244 243 242 241 240 241 239 239 237 237 240 237 233 225 208 202 203 201 223 250 238 232 225 225 229 219 206 208 209 208 207 204 205 200 191 187 190 194 192 189 194 208 210 196 156 127 126 204 216 218 215 218 215 198 190 205 266 212 188 167 197 224 230 228 248 226 221 229 233 233 233 238 245 249 251 250 245 238 234 234
261 260 259 256 254 253 250 245 243 241 241 240 239 240 238 238 238 238 240 239 232 218 208 199 189 196 234 239 227 221 226 224 223 218 206 201 204 207 207 204 205 198 184 180 191 197 191 180 171 167 197 193 166 168 191 206 202 197 198 205 215 181 183 191 211 203 186 191 207 213 235 238 253 253 234 235 233 232 235 239 246 252 255 255 251 243 238 238
259 258 258 255 251 250 249 246 242 240 238 236 237 237 237 239 238 238 236 236 223 204 199 184 179 187 247 234 228 222 225 221 216 217 206 199 203 212 212 203 202 197 181 170 192 194 183 164 159 176 202 202 200 199 203 198 185 192 188 174 164 165 203 203 214 212 185 200 225 215 233 239 241 249 240 234 227 227 235 239 245 252 254 253 252 247 242 243
258 256 256 255 251 246 245 245 242 239 236 234 235 235 236 233 232 236 227 230 226 208 202 189 188 193 57 24 246 217 213 210 208 212 206 203 205 213 219 205 196 194 185 168 183 187 182 175 182 195 201 202 208 208 209 220 168 169 159 174 179 179 219 213 216 233 185 195 238 220 231 242 235 237 233 230 229 227 234 239 243 250 254 252 249 246 242 242
258 255 254 253 251 247 243 244 243 239 236 233 230 228 227 215 208 224 211 225 232 216 212 202 196 200 218 355 312 194 188 186 199 208 206 204 205 209 217 207 189 188 195 176 155 175 185 197 205 203 200 197 203 203 207 236 203 162 177 195 196 192 218 215 212 235 185 188 248 221 229 247 241 240 234 232 234 234 236 239 243 246 251 252 250 246 242 242
257 255 253 252 249 247 243 242 242 239 237 233 231 229 227 220 215 222 208 225 239 225 221 210 202 205 208 346 335 182 173 165 194 205 201 198 200 201 200 199 202 198 192 171 138 166 188 213 212 205 199 191 194 190 194 222 231 220 191 177 198 204 223 270 256 255 195 193 238 213 229 248 245 244 235 230 231 234 236 237 240 244 245 246 247 245 242 243
257 254 252 250 247 245 242 239 238 238 235 231 233 233 231 229 223 227 240 252 252 230 218 204 203 210 213 235 148 176 171 166 186 197 197 193 193 198 192 181 207 216 187 181 188 187 198 220 211 198 190 192 195 183 184 209 228 234 180 161 208 199 165 224 251 255 233 237 237 216 250 256 244 250 244 230 229 234 236 236 239 243 244 245 247 247 245 246
255 253 251 249 245 244 241 239 237 235 234 230 233 234 231 232 229 230 241 263 292 231 212 207 205 211 216 220 179 176 185 191 186 189 192 189 187 194 195 181 199 223 200 195 199 206 224 211 170 173 188 195 194 184 183 196 223 228 209 189 203 184 184 206 218 222 242 257 237 214 277 270 223 238 252 233 227 234 236 235 238 241 243 248 251 251 251 252
254 252 251 247 243 242 239 239 237 232 231 232 233 232 228 231 232 232 236 268 281 224 206 208 207 215 214 212 200 187 194 208 200 192 189 190 188 181 189 192 192 220 219 205 198 215 236 176 150 178 191 186 193 195 189 188 211 233 222 207 196 185 205 224 201 135 187 251 232 181 246 272 215 220 239 228 214 229 232 230 233 236 239 243 248 251 252 253
253 251 249 246 242 239 235 235 236 231 229 232 233 229 225 225 229 228 219 270 269 194 185 192 195 214 208 203 204 192 194 223 212 199 190 193 193 181 179 183 181 219 218 209 206 219 227 178 169 187 181 181 199 206 195 187 198 227 216 198 187 184 205 223 224 169 172 236 257 182 214 265 271 224 232 221 214 224 225 226 228 231 236 241 246 250 250 252
249 248 248 247 241 232 226 227 230 225 224 229 229 224 221 218 219 216 195 254 248 167 161 177 183 198 195 194 195 185 186 199 199 204 194 192 193 186 185 174 180 218 193 153 223 215 175 181 182 184 180 186 199 206 198 185 196 224 200 161 175 200 207 208 216 225 219 258 300 244 200 256 266 238 225 211 222 233 228 233 237 234 238 242 246 250 252 254
245 244 245 244 238 227 222 223 223 219 220 227 226 219 217 212 209 199 181 248 210 136 146 180 181 184 182 185 188 189 202 172 174 203 196 191 189 184 189 191 192 207 176 171 214 224 158 183 187 185 186 195 202 208 192 182 203 221 165 152 190 206 200 181 191 225 265 315 271 262 158 244 257 243 212 198 215 234 230 230 239 239 240 242 246 251 253 254
243 244 245 242 238 229 223 222 222 222 222 223 220 214 212 205 197 180 210 249 135 112 148 168 172 171 164 170 185 197 211 172 165 185 187 189 189 184 194 201 190 170 188 208 217 233 62 190 196 188 190 203 205 202 175 183 208 183 146 178 209 206 188 178 185 201 323 263 240 235 185 228 259 224 188 199 214 225 226 225 231 234 237 241 245 247 250 252
246 246 244 238 233 225 221 221 221 224 222 216 213 207 199 193 183 182 231 229 80 147 146 153 168 163 155 157 184 199 207 185 161 164 175 183 187 187 185 188 176 118 191 249 241 237 9 23 239 198 204 211 199 190 181 188 191 137 137 178 190 196 179 162 112 86 264 256 243 229 196 213 257 219 179 202 210 204 204 216 231 235 237 239 242 245 249 254
247 247 242 232 226 220 217 217 216 218 216 213 208 193 183 178 180 225 220 151 72 176 149 158 166 153 157 163 176 191 200 213 166 157 164 175 182 183 161 165 159 131 188 250 255 252 296 14 336 239 222 196 165 202 198 183 172 151 149 147 136 103 115 125 74 97 217 246 242 222 195 204 240 231 190 218 219 199 200 205 214 225 232 236 241 246 250 253
245 245 244 231 224 220 217 217 213 209 209 207 195 175 168 181 214 223 216 106 146 188 157 164 159 151 165 169 174 184 182 192 182 170 171 166 171 183 179 175 167 167 193 208 212 229 238 217 201 248 242 193 175 195 193 159 177 188 173 153 166 188 158 176 192 182 214 242 241 190 176 210 243 239 221 242 242 219 222 220 213 217 228 236 242 246 249 251
241 241 246 234 224 220 220 222 212 204 201 193 179 164 163 231 210 203 223 193 223 201 160 162 163 164 168 168 180 185 176 188 188 178 177 170 175 192 193 187 178 177 187 193 201 211 227 229 205 199 261 211 188 178 179 178 187 195 186 174 183 181 179 197 198 193 212 234 234 166 168 230 260 247 218 229 236 226 226 229 226 226 232 241 245 248 252 256
238 238 243 236 227 220 222 224 211 202 193 178 169 163 185 224 199 192 205 211 269 228 157 154 158 163 173 177 181 175 173 203 186 175 172 169 181 196 196 196 192 184 122 170 198 195 211 232 203 192 197 188 193 199 191 177 185 199 194 187 196 191 190 197 192 196 202 198 190 172 173 212 231 232 216 221 234 233 229 230 233 235 240 249 253 253 257 262
237 237 236 233 227 220 220 222 210 198 186 172 164 175 198 204 201 197 195 178 245 247 134 146 152 158 179 189 179 178 185 191 174 173 173 175 187 192 190 195 193 186 151 171 192 186 213 244 204 198 199 171 186 218 181 151 183 209 182 190 212 209 192 194 189 179 153 110 162 188 225 216 210 264 261 231 243 240 234 235 237 241 247 253 256 257 259 264
234 233 231 230 226 219 215 215 206 190 178 169 169 205 199 208 202 190 188 152 162 157 134 153 161 162 174 169 168 187 200 122 163 176 181 180 195 191 188 195 188 190 190 179 175 163 201 240 190 186 208 192 188 195 175 167 177 186 189 198 217 211 136 136 278 109 123 176 191 187 243 257 249 277 269 227 252 257 243 240 240 244 251 255 257 257 258 261
226 225 229 231 230 222 209 205 199 183 170 166 190 199 193 215 193 166 180 138 150 153 147 163 169 166 171 155 165 181 181 126 167 183 179 174 200 194 191 203 185 191 208 194 190 186 186 226 310 171 206 215 194 185 191 203 165 146 200 193 123 37 74 110 225 166 139 209 204 194 226 228 200 255 264 213 229 250 248 243 247 251 252 253 254 253 256 260
218 220 230 235 232 219 203 198 189 175 165 166 201 196 187 203 193 162 157 145 156 161 162 174 169 174 178 167 174 178 172 167 174 183 180 174 212 192 186 201 188 194 207 198 193 245 176 219 290 199 194 196 163 161 204 250 242 191 234 180 118 194 219 162 198 199 178 212 222 211 225 217 198 216 227 207 222 235 248 251 257 256 247 247 252 256 262 261
207 212 233 235 230 217 198 188 177 169 164 182 198 197 186 193 220 183 170 178 200 177 176 190 184 188 189 181 178 175 175 180 174 177 186 183 213 196 184 187 190 197 202 191 185 231 157 191 266 260 182 157 138 171 206 222 218 192 352 337 194 217 208 188 198 207 185 205 226 224 219 227 225 204 182 212 223 217 234 245 243 247 249 251 259 270 273 249
192 191 243 230 229 211 186 176 170 166 169 200 198 196 146 179 274 227 181 177 201 218 191 187 181 179 185 178 167 175 183 182 173 181 196 187 207 223 190 183 183 191 191 186 190 180 94 191 233 321 206 173 169 199 213 209 189 167 186 212 209 207 138 177 207 192 172 197 219 229 232 253 254 202 187 210 223 213 215 225 235 251 258 259 263 267 248 210
177 170 243 215 208 185 172 166 167 167 164 191 202 178 147 178 238 232 202 180 187 251 241 185 180 172 171 168 164 178 182 171 177 190 203 197 206 229 198 189 182 172 174 183 199 185 129 189 197 194 195 193 197 214 223 218 192 186 198 197 196 192 154 183 203 170 167 209 200 211 247 267 264 244 213 213 222 231 224 215 238 257 263 251 234 225 200 181
167 162 230 194 184 174 166 159 154 158 163 183 173 146 156 167 166 209 225 187 183 257 272 211 188 164 169 176 167 172 176 172 183 189 204 211 206 212 201 185 166 154 160 184 201 181 108 127 163 201 212 201 248 280 356 15 193 204 212 192 183 182 164 193 208 181 187 204 156 156 254 274 291 319 310 249 226 255 248 228 222 227 180 147 146 150 158 162
165 168 187 179 179 174 168 158 132 156 190 163 144 143 156 152 143 178 194 168 180 234 232 231 202 171 179 177 159 168 175 180 196 199 211 220 209 212 196 171 156 151 160 181 195 173 88 117 153 223 289 311 311 306 8 29 43 211 220 181 167 189 193 202 209 166 181 196 174 194 228 259 312 330 336 330 66 63 245 192 166 145 134 136 137 141 147 149
161 164 184 180 180 178 174 150 160 168 188 130 130 139 151 153 168 170 177 184 183 190 218 227 196 176 181 168 163 174 174 177 209 211 210 226 208 200 185 170 160 159 179 185 176 173 183 186 163 173 241 247 266 287 335 342 316 189 210 195 186 194 190 181 116 157 218 198 178 198 221 227 294 330 352 358 59 66 63 135 144 136 130 131 132 134 137 138
151 153 219 182 177 181 182 144 172 171 148 138 148 158 153 160 198 184 179 178 186 184 201 254 231 162 151 153 152 169 178 175 189 200 199 197 197 189 181 177 171 174 195 187 164 163 179 195 183 192 201 198 207 217 215 216 199 204 217 195 195 196 186 184 207 207 215 185 167 191 228 232 293 333 354 350 58 79 75 123 135 131 130 132 133 135 137 140
153 180 268 171 171 180 200 334 175 171 147 149 155 164 164 168 223 186 167 175 243 236 207 270 268 144 144 156 147 170 192 189 124 170 196 191 197 210 182 182 183 186 191 174 156 151 159 217 192 205 220 215 208 208 150 113 139 204 221 198 202 205 191 189 212 212 201 186 187 202 207 226 259 236 208 270 214 136 136 139 138 135 133 133 136 142 148 150
164 178 168 127 151 169 331 345 158 148 152 164 162 169 169 163 139 166 166 184 227 231 239 302 273 180 169 167 165 179 191 194 182 174 187 188 209 307 178 180 189 192 182 168 161 149 107 217 192 202 225 226 185 178 181 144 166 193 201 196 202 205 191 192 213 211 185 198 226 214 192 223 242 216 190 217 210 175 178 162 147 139 134 134 140 150 162 167
152 168 162 160 152 168 198 209 173 146 148 167 167 161 166 170 180 178 174 172 177 200 233 265 188 235 210 170 170 177 174 190 212 196 174 181 183 125 136 163 195 187 173 171 170 148 136 214 198 196 219 225 174 166 180 149 170 191 194 194 198 201 197 200 215 217 196 211 235 206 184 222 237 211 187 200 192 181 178 164 152 147 144 143 148 165 181 186
114 102 132 146 199 225 139 148 161 153 156 168 164 157 166 177 193 189 144 128 160 198 209 219 232 235 233 180 169 173 170 183 206 204 174 162 170 154 131 122 211 166 157 170 181 141 158 203 193 186 210 224 202 190 173 141 145 185 197 196 196 200 201 204 217 222 212 225 246 203 197 237 240 200 200 204 191 183 174 163 162 166 167 174 184 192 194 193
127 113 135 139 298 291 111 118 145 151 160 174 182 194 177 179 192 192 151 164 187 193 185 207 238 224 215 204 177 192 196 191 194 193 163 149 174 182 166 176 166 113 125 155 195 324 183 194 153 156 198 231 216 217 224 172 173 209 210 186 170 184 195 207 220 221 206 234 256 242 253 268 246 200 215 217 199 191 184 179 184 189 197 207 211 207 202 203
160 134 138 136 7 118 120 114 131 137 166 194 197 191 183 189 191 186 188 200 199 193 180 184 189 163 196 218 223 246 233 208 197 180 167 167 178 182 188 184 155 145 156 166 160 143 167 196 90 130 180 235 213 201 205 168 176 243 244 195 158 165 182 203 210 199 178 194 214 203 239 258 237 187 215 235 224 216 211 201 202 211 220 223 221 218 217 221
114 150 156 148 111 142 131 103 134 161 187 197 193 189 189 195 190 182 196 220 209 204 192 173 152 122 102 228 227 243 300 314 250 191 181 180 176 175 182 169 155 156 164 156 138 136 150 151 130 147 177 235 225 178 164 125 123 245 240 204 189 192 199 205 210 199 189 185 174 181 221 237 212 159 211 238 229 217 225 224 220 225 232 234 230 227 229 232